Location: Springville
(37.3745°N, 89.2676°W)
Time: 23:41:59
(UTC+00:00)

NOSS 3-3 (A) - Pass Details

Date: 29 October 2020
Orbit: 819 x 1393 km, 63.4° (Epoch: 29 November)

Event Time Altitude Azimuth Distance (km) Brightness Sun altitude
Rises 23:21:59 0° 193° (SSW) 3,344 7.2 -4.7°
Reaches altitude 10° 23:24:25 10° 188° (S) 2,439 6.4 -5.2°
Maximum altitude 23:29:45 47° 115° (ESE) 1,150 4.1 -6.2°
Drops below altitude 10° 23:35:38 10° 43° (NE) 2,694 5.8 -7.4°
Sets 23:38:26 0° 38° (NE) 3,729 6.6 -7.9°
